Wind_Speed
36 37 37 40 39 41 43 43 44 45 46 47 48 49 48 48 48 50 53 55 58 61 64 66 67 67 60
37 37 39 42 42 42 44 44 46 48 49 49 48 47 48 49 49 49 48 52 56 60 62 65 66 62 56
36 39 40 41 45 45 46 48 49 50 50 49 49 51 51 52 53 54 55 57 58 57 56 61 60 57 53
41 41 42 42 45 48 49 49 49 50 50 50 51 52 54 54 55 58 59 59 59 57 55 50 49 48 44
43 44 45 45 46 49 48 49 50 49 50 51 52 54 55 55 56 58 59 60 59 58 50 45 47 44 43
46 45 44 45 47 50 49 50 50 50 51 52 54 54 56 57 58 57 58 56 51 47 41 43 42 42 42
48 47 47 46 48 50 49 50 52 53 53 52 51 51 52 53 52 49 43 42 42 42 44 41 41 44 49
49 49 50 50 49 50 50 51 51 51 52 52 53 55 53 50 48 42 41 41 41 41 40 41 45 48 45
51 52 51 50 50 51 52 52 52 53 55 56 55 53 51 47 45 45 42 41 42 42 43 44 44 45 44
52 51 52 52 52 52 54 54 54 55 55 53 50 47 45 43 43 43 41 42 43 43 43 43 42 40 42
50 51 51 52 53 53 53 53 55 55 52 48 43 41 42 41 40 40 40 40 40 40 38 36 37 38 40
51 51 52 53 53 52 53 54 53 49 46 45 43 41 39 39 37 40 36 32 33 34 36 36 36 38 41
51 51 51 51 52 52 49 46 45 42 42 40 38 36 33 32 33 33 32 31 32 34 36 36 35 38 43
49 50 50 51 49 46 40 38 37 37 38 39 38 38 38 34 31 30 31 34 36 36 36 39 42 47 49
50 49 47 46 44 42 39 39 38 37 39 40 40 39 37 34 35 37 39 39 40 41 44 47 51 53 53
48 45 44 45 45 44 44 44 44 41 42 41 42 42 41 41 43 45 46 45 45 48 51 54 58 55 55
46 45 45 46 47 49 50 49 49 48 46 46 46 49 50 49 49 50 51 54 55 57 59 60 61 59 59
Wind_Direction
269 270 270 272 272 272 275 277 278 280 282 283 284 286 289 292 293 295 293 293 290 289 289 290 290 295 298
268 272 271 273 276 275 276 275 276 278 280 282 285 287 288 289 291 293 296 300 297 296 298 298 297 298 296
269 270 272 271 275 277 276 276 278 278 282 282 280 283 287 289 290 293 294 294 297 296 298 300 298 294 294
273 273 273 271 272 274 275 277 279 280 280 281 283 285 288 293 294 294 295 296 296 294 290 293 294 291 290
274 276 276 276 273 273 274 275 277 278 280 282 285 287 288 290 292 294 296 297 294 289 290 292 292 294 293
275 276 276 273 270 270 273 275 276 278 280 282 286 286 287 288 290 292 295 293 294 290 290 294 294 295 295
275 275 273 274 273 273 275 276 277 279 279 282 284 288 290 290 292 295 295 294 294 287 290 291 296 295 294
274 273 270 271 274 274 275 273 277 278 280 281 284 286 287 291 294 292 290 292 291 289 289 294 294 293 293
270 271 273 274 274 274 275 276 280 280 283 283 285 287 290 292 289 288 287 290 292 293 292 290 290 292 292
270 271 271 271 273 275 276 277 279 281 284 285 286 288 288 288 286 286 286 290 294 291 288 289 294 300 298
268 269 271 272 274 275 277 279 281 283 284 284 285 283 283 285 287 287 291 291 291 289 291 295 297 298 300
266 267 269 271 273 276 278 280 282 283 283 283 282 282 285 289 288 289 292 294 298 297 296 298 299 301 303
263 266 269 270 273 276 279 279 279 281 281 282 284 289 290 287 287 292 295 295 295 295 295 295 298 303 308
264 266 268 271 274 277 276 277 279 284 287 288 285 281 282 284 284 284 289 296 297 296 297 300 304 307 308
262 266 268 270 272 274 274 281 282 282 282 281 281 282 280 281 286 286 289 295 298 300 301 302 306 306 302
260 263 265 269 271 272 274 276 280 279 282 282 281 279 279 281 284 287 288 289 292 295 298 299 301 301 301
257 260 264 267 269 272 274 274 275 276 279 279 279 281 282 283 285 286 287 289 290 292 294 296 297 295 295
Height
5772 5772 5774 5771 5773 5773 5771 5770 5768 5766 5763 5761 5759 5757 5755 5753 5751 5748 5745 5741 5738 5735 5732 5728 5725 5723 5719
5763 5763 5763 5762 5762 5762 5761 5760 5758 5755 5753 5751 5749 5747 5744 5742 5739 5737 5733 5730 5726 5723 5719 5716 5713 5710 5706
5755 5754 5754 5754 5750 5750 5749 5747 5745 5745 5743 5741 5738 5735 5733 5731 5728 5725 5721 5718 5714 5710 5707 5703 5700 5697 5693
5743 5743 5743 5744 5741 5740 5738 5736 5735 5734 5731 5729 5727 5724 5722 5720 5717 5713 5710 5706 5702 5697 5693 5690 5687 5685 5682
5732 5732 5732 5732 5730 5728 5728 5726 5725 5723 5721 5718 5716 5714 5711 5708 5706 5702 5698 5693 5689 5685 5682 5680 5677 5674 5672
5719 5720 5720 5720 5719 5717 5716 5714 5714 5711 5709 5707 5705 5702 5699 5696 5693 5689 5685 5681 5677 5675 5673 5671 5667 5664 5662
5707 5708 5707 5707 5706 5706 5704 5703 5701 5700 5696 5695 5693 5690 5687 5683 5680 5676 5673 5670 5668 5666 5663 5660 5657 5654 5652
5695 5694 5694 5694 5694 5693 5692 5691 5689 5687 5685 5683 5680 5678 5674 5671 5668 5666 5663 5660 5658 5655 5652 5649 5647 5644 5641
5682 5681 5682 5681 5681 5680 5680 5678 5676 5674 5671 5670 5668 5664 5661 5658 5656 5655 5653 5651 5648 5645 5642 5640 5638 5635 5632
5669 5669 5669 5668 5668 5667 5666 5664 5663 5662 5658 5657 5654 5652 5650 5648 5646 5644 5642 5640 5637 5634 5632 5630 5628 5625 5622
5656 5656 5655 5655 5655 5654 5653 5652 5650 5648 5647 5645 5643 5641 5639 5638 5636 5633 5631 5629 5627 5626 5624 5620 5618 5616 5612
5642 5643 5643 5643 5642 5642 5640 5639 5637 5636 5635 5633 5631 5629 5628 5626 5625 5623 5621 5619 5618 5617 5615 5611 5608 5605 5601
5629 5630 5630 5630 5630 5629 5628 5627 5626 5625 5624 5622 5620 5618 5617 5617 5616 5614 5612 5610 5608 5606 5603 5600 5597 5594 5589
5616 5617 5617 5618 5618 5617 5616 5616 5615 5614 5613 5611 5610 5610 5609 5607 5605 5603 5601 5600 5597 5594 5592 5589 5586 5582 5577
5603 5604 5605 5605 5605 5605 5605 5604 5604 5604 5603 5602 5601 5599 5598 5597 5595 5593 5590 5588 5585 5583 5579 5576 5572 5568 5563
5589 5591 5592 5593 5593 5593 5593 5593 5593 5593 5592 5591 5590 5588 5587 5585 5583 5581 5578 5576 5573 5570 5567 5563 5558 5554 5549
5576 5578 5579 5580 5580 5580 5581 5581 5580 5580 5579 5578 5577 5576 5574 5572 5570 5567 5565 5563 5560 5556 5552 5548 5543 5538 5534